Location: Northcutt
(34.7304°N, 84.4305°W)
Time: 04:36:30
(UTC+00:00)

Vanguard 2 - Pass Details

Date: 11 October 2022
Orbit: 553 x 2933 km, 32.9° (Epoch: 04 December)

Event Time Altitude Azimuth Distance (km) Brightness Sun altitude
Rises 21:14:09 0° 281° (W) 5,078 12.6 21.5°
Reaches altitude 10° 21:17:09 10° 277° (W) 4,363 12.5 21.0°
Maximum altitude 21:29:29 53° 205° (SSW) 2,997 11.3 18.6°
Drops below altitude 10° 21:46:14 10° 135° (SE) 5,755 11.8 15.4°
Sets 21:50:55 0° 131° (SE) 6,750 12.1 14.5°
